Location: Houhaj�rvi
(61.2833°N, 23.0000°E)
Time: 10:35:53
(UTC+00:00)

Meteor 1-11 Rocket - Pass Details

Date: 27 February 2020
Orbit: 831 x 916 km, 81.2° (Epoch: 29 March)

Event Time Altitude Azimuth Distance (km) Brightness Sun altitude
Rises 19:11:26 0° 197° (SSW) 3,395 6.7 -24.7°
Reaches altitude 10° 19:13:51 10° 198° (SSW) 2,456 6.0 -24.9°
Maximum altitude 19:19:25 85° 288° (WNW) 846 3.6 -25.5°
Drops below altitude 10° 19:24:59 10° 17° (NNE) 2,456 6.3 -26.0°
Sets 19:27:24 0° 18° (NNE) 3,395 7.0 -26.3°
